[[{"header":{"parameterUnit":"m.s-1","parameterCategory":1,"la1":30.2991,"la2":30.254,"lo1":-89.0895,"lo2":-89.0444,"dy":0.0017,"dx":0.0017,"nx":28,"ny":28,"refTime":"2025-08-21T03:00:00:Z","depth":0,"parameterNumber":2,"parameterNumberName":"U-component_of_WINDS"},"data":[0,0,0,0,0,0,0,0,0,0,0,0,0,0,0,0,0,0,0,0,0,0,0,0,0,0,0,0,0,0,0,0,0,0,0,0,0,0,0,0,0,0,0,0,0,0,0,0,0,0,0,0,0,0,0,0,0,0,-0.0449,-0.0449,0,-0.042,-0.042,-0.0419,-0.0465,-0.0466,-0.0468,-0.0469,-0.0434,-0.0432,-0.0429,0,0,0,0,0,0,0,0,0,0,0,0,0,-0.054,-0.0539,-0.0449,-0.0449,-0.0449,-0.042,-0.042,-0.0419,-0.0464,-0.0466,-0.0468,-0.047,-0.0435,-0.0432,-0.0429,0,0,0,0,0,0,0,0,0,0,0,0,0,-0.0505,-0.0538,-0.0449,-0.0468,-0.0469,-0.042,-0.042,-0.0419,-0.0464,-0.0466,-0.0469,-0.0471,-0.0436,-0.0432,-0.0429,-0.0359,0,0,-0.0418,-0.0416,0,0,0,0,0,0,0,0,-0.0507,-0.0501,-0.0465,-0.0466,-0.0468,-0.0449,-0.0439,-0.0399,-0.0463,-0.0466,-0.0469,-0.0472,-0.0437,-0.0433,-0.0422,-0.0357,-0.0356,-0.0417,-0.0415,-0.0414,-0.0413,0,0,0,0,0,0,0,-0.0509,-0.0503,-0.0438,-0.0465,-0.0466,-0.0476,-0.0474,-0.0432,-0.0438,-0.0466,-0.0469,-0.0465,-0.0438,-0.0426,-0.0422,-0.0355,-0.0418,-0.0414,-0.0412,-0.0411,-0.0233,-0.0231,0,0,0,0,0,0,-0.051,-0.0505,-0.0439,-0.0437,-0.0494,-0.0473,-0.047,-0.0452,-0.0439,-0.0439,-0.0463,-0.0467,-0.0431,-0.0426,-0.0421,-0.0338,-0.0414,-0.041,-0.0408,-0.0235,-0.0232,-0.023,0,0,0,0,0,0,-0.0512,-0.0504,-0.044,-0.0472,-0.0464,-0.0469,-0.0448,-0.045,-0.0438,-0.0437,-0.0438,-0.045,-0.0432,-0.0426,-0.0375,-0.0338,-0.0409,-0.0405,-0.0239,-0.0235,-0.0231,-0.0173,0,0,0,0,0,0,-0.0514,-0.0504,-0.0478,-0.0471,-0.0462,-0.0395,-0.0446,-0.0448,-0.0433,-0.0438,-0.0425,-0.0425,-0.0434,-0.038,-0.0371,-0.0334,-0.0403,-0.0242,-0.0237,-0.0232,-0.0178,-0.0168,-0.0159,0,0,0,0,0,-0.0517,-0.0462,-0.0477,-0.0468,-0.043,-0.0393,-0.0388,-0.0401,-0.043,-0.0403,-0.0402,-0.0425,-0.0344,-0.0374,-0.0365,-0.0326,-0.0244,-0.0238,-0.0233,-0.0182,-0.017,-0.0159,0,0,0,0,0,0,-0.0462,-0.0461,-0.0477,-0.0418,-0.0405,-0.04,-0.0367,-0.0387,-0.0364,-0.037,-0.0386,-0.0382,-0.0327,-0.0322,-0.0356,-0.0259,-0.0299,-0.0291,-0.0264,-0.0252,-0.0242,-0.0243,-0.04,0,0,0,0,0,-0.0443,-0.0414,-0.0414,-0.0362,-0.0355,-0.0362,-0.0346,-0.0358,-0.0344,-0.0339,-0.0334,-0.0319,-0.0291,-0.0271,-0.0245,-0.0179,-0.0176,-0.0147,-0.0138,-0.013,-0.0122,-0.0087,-0.0074,-0.0211,-0.0211,-0.0211,0,0,-0.0403,-0.0399,-0.0379,-0.035,-0.0342,-0.031,-0.0357,-0.0321,-0.0298,-0.0333,-0.0285,-0.0281,-0.0266,-0.0207,-0.0181,-0.02,-0.0084,-0.0122,-0.0116,-0.0113,-0.008,-0.0067,-0.0055,-0.0207,-0.0208,-0.0208,0,0,-0.0314,-0.0309,-0.0264,-0.0256,-0.0244,-0.025,-0.0239,-0.0232,-0.0231,-0.0184,-0.021,-0.0182,-0.0132,-0.012,-0.0107,-0.0017,-0.0037,-0.0008,0.0044,0.0078,0.0089,0.0098,0.0131,0.0143,-0.0001,-0.0001,-0.0001,0,-0.0265,-0.022,-0.0239,-0.0202,-0.0188,-0.0222,-0.0177,-0.0167,-0.0146,-0.0135,-0.0159,-0.0098,-0.009,-0.0029,-0.0007,0.0004,0.0016,-0.0008,0.0088,0.0098,0.0106,0.0138,0.015,0.0003,0.0002,0.0002,0.0002,0,-0.0161,-0.0129,-0.0095,-0.0076,-0.0059,-0.0018,-0.003,-0.001,-0.0024,-0.0027,0.0022,0.0029,0.0057,0.007,0.0058,0.0129,0.0116,0.0091,0.0051,0.0123,0.0152,0.0164,0.0008,0.0007,0.0005,0.0005,0,0,-0.0032,-0.0027,-0.0014,-0.0007,0.0003,0.0028,0.0067,0.0091,0.0109,0.0123,0.0157,0.0198,0.0174,0.0188,0.0177,0.0206,0.0278,0.0178,0.0178,0.0197,0.0357,0.0377,0.0391,0.0263,0.0266,0.0267,0.0356,0,0.0057,0.0122,0.0105,0.0171,0.02,0.0167,0.0201,0.0212,0.0209,0.0234,0.0232,0.0261,0.0227,0.0236,0.0263,0.0263,0.031,0.0256,0.0296,0.0297,0.0294,0.0406,0.0427,0.051,0.0367,0.0369,0.037,0,0.017,0.0187,0.0255,0.0258,0.027,0.0301,0.0321,0.0345,0.0355,0.0351,0.0365,0.0347,0.0387,0.0344,0.0398,0.0362,0.0377,0.0379,0.0381,0.0386,0.0339,0.0415,0.0536,0.0549,0.0388,0.0386,0.0385,0,0.0258,0.0297,0.0343,0.035,0.0355,0.0377,0.0381,0.0388,0.0404,0.0421,0.0431,0.0454,0.0467,0.0485,0.0474,0.0444,0.053,0.0487,0.0529,0.053,0.0551,0.055,0.0678,0.0558,0.0557,0.0557,0.0557,0,0.036,0.0403,0.0382,0.041,0.0458,0.0437,0.0485,0.0485,0.0492,0.052,0.0493,0.052,0.0503,0.0529,0.052,0.0566,0.0572,0.0571,0.0569,0.0574,0.0575,0.0585,0.058,0.056,0.056,0.0559,0.0559,0,0.0467,0.0454,0.0502,0.0501,0.0502,0.0537,0.0537,0.0563,0.0557,0.0593,0.0601,0.0592,0.0621,0.0611,0.0643,0.0637,0.0696,0.0685,0.0692,0.069,0.0733,0.0729,0.0874,0.0892,0.0759,0.076,0.0761,0,0.0534,0.0566,0.0568,0.0584,0.0588,0.0614,0.0629,0.061,0.0626,0.0639,0.0664,0.069,0.071,0.0758,0.0756,0.078,0.077,0.0819,0.0774,0.0778,0.0772,0.0771,0.0774,0.0829,0.083,0.0832,0.0833,0,0.0654,0.0646,0.0667,0.0685,0.0702,0.0716,0.0728,0.0743,0.0724,0.0744,0.0772,0.0788,0.0818,0.0845,0.0866,0.087,0.0849,0.0846,0.0857,0.0865,0.0868,0.0867,0.0718,0.0844,0.0843,0.0842,0.0841,0.0841,0.0744,0.0771,0.0775,0.0799,0.0805,0.0816,0.0841,0.0837,0.0859,0.0881,0.0869,0.0902,0.091,0.0935,0.0942,0.0968,0.095,0.0966,0.097,0.0975,0.0981,0.0862,0.0972,0.0972,0.0971,0.0971,0.0971,0,0.0864,0.0864,0.0886,0.0902,0.0921,0.0896,0.0907,0.0925,0.0954,0.0962,0.0981,0.1013,0.1038,0.1036,0.106,0.1081,0.1072,0.1088,0.1087,0.1088,0.0996,0.0984,0.1095,0.1095,0.1095,0.1095,0.1095,0.1095,0.0929,0.0972,0.0963,0.1009,0.101,0.104,0.1049,0.1059,0.1065,0.1102,0.1121,0.1119,0.1123,0.1146,0.1168,0.1167,0.1177,0.1197,0.1193,0.1107,0.1095,0.1083,0.1072,0.1199,0.1199,0.1283,0.1284,0.1284]},{"header":{"parameterUnit":"m.s-1","parameterCategory":1,"la1":30.2991,"la2":30.254,"lo1":-89.0895,"lo2":-89.0444,"dy":0.0017,"dx":0.0017,"nx":28,"ny":28,"refTime":"2025-08-21T03:00:00:Z","depth":0,"parameterNumber":3,"parameterNumberName":"V-component_of_WINDS"},"data":[0,0,0,0,0,0,0,0,0,0,0,0,0,0,0,0,0,0,0,0,0,0,0,0,0,0,0,0,0,0,0,0,0,0,0,0,0,0,0,0,0,0,0,0,0,0,0,0,0,0,0,0,0,0,0,0,0,0,0.4587,0.4587,0,0.4595,0.4595,0.4595,0.4568,0.4567,0.4566,0.4566,0.4576,0.4577,0.4578,0,0,0,0,0,0,0,0,0,0,0,0,0,0.455,0.4551,0.4587,0.4587,0.4587,0.4595,0.4595,0.4595,0.4568,0.4567,0.4566,0.4565,0.4576,0.4577,0.4578,0,0,0,0,0,0,0,0,0,0,0,0,0,0.4563,0.4551,0.4587,0.4574,0.4573,0.4595,0.4595,0.4595,0.4568,0.4567,0.4566,0.4565,0.4575,0.4577,0.4578,0.4613,0,0,0.4583,0.4584,0,0,0,0,0,0,0,0,0.4562,0.4564,0.4576,0.4575,0.4574,0.4579,0.4586,0.4601,0.4569,0.457,0.4566,0.4564,0.4578,0.458,0.4584,0.4614,0.4614,0.4583,0.4584,0.4585,0.4585,0,0,0,0,0,0,0,0.4561,0.4564,0.459,0.4576,0.4575,0.4569,0.457,0.4589,0.4581,0.457,0.4568,0.4569,0.4577,0.4582,0.4584,0.4614,0.4583,0.4585,0.4586,0.4586,0.4675,0.4676,0,0,0,0,0,0,0.4562,0.4563,0.459,0.459,0.4565,0.4571,0.4571,0.4579,0.4581,0.458,0.457,0.4568,0.458,0.4582,0.4584,0.4625,0.4585,0.4586,0.4587,0.4673,0.4675,0.4676,0,0,0,0,0,0,0.4561,0.4564,0.4589,0.4576,0.4579,0.4573,0.4581,0.458,0.4584,0.4581,0.458,0.4577,0.4579,0.4582,0.4606,0.4625,0.4587,0.4589,0.4671,0.4674,0.4676,0.4708,0,0,0,0,0,0,0.456,0.4564,0.4576,0.4577,0.458,0.461,0.4583,0.4581,0.4587,0.4584,0.4587,0.4586,0.4579,0.4604,0.4608,0.4627,0.459,0.467,0.4672,0.4675,0.4705,0.4711,0.4716,0,0,0,0,0,0.4559,0.4585,0.4577,0.4581,0.4595,0.4612,0.4613,0.4604,0.4589,0.4601,0.46,0.4586,0.4623,0.4607,0.4611,0.4631,0.4668,0.4672,0.4675,0.4703,0.471,0.4716,0,0,0,0,0,0,0.4587,0.4585,0.4576,0.4603,0.4608,0.4607,0.4622,0.4612,0.4621,0.4618,0.4606,0.4607,0.4634,0.4635,0.4617,0.4665,0.4643,0.4647,0.4663,0.467,0.4675,0.4674,0.4591,0,0,0,0,0,0.4597,0.461,0.4608,0.4632,0.4635,0.4629,0.4635,0.4628,0.4632,0.4634,0.4634,0.464,0.4653,0.4662,0.4673,0.4706,0.4706,0.4722,0.4727,0.4731,0.4735,0.4753,0.476,0.4687,0.4687,0.4687,0,0,0.4617,0.4617,0.4626,0.4638,0.464,0.4655,0.463,0.4646,0.4657,0.4637,0.4659,0.466,0.4666,0.4695,0.4707,0.4696,0.4756,0.4735,0.4739,0.474,0.4757,0.4764,0.477,0.4689,0.4688,0.4688,0,0,0.4659,0.4661,0.4681,0.4685,0.469,0.4686,0.4691,0.4692,0.4692,0.4714,0.47,0.4714,0.4736,0.4741,0.4746,0.4794,0.4782,0.4799,0.4826,0.4844,0.485,0.4855,0.4872,0.4878,0.4802,0.4802,0.4802,0,0.4683,0.4703,0.4694,0.4711,0.4717,0.47,0.4721,0.4726,0.4734,0.4739,0.4727,0.4756,0.4758,0.4788,0.48,0.4805,0.4812,0.4797,0.485,0.4855,0.4859,0.4876,0.4882,0.4804,0.4804,0.4804,0.4804,0,0.4733,0.4748,0.4764,0.4772,0.4781,0.48,0.4794,0.4804,0.4797,0.4795,0.4819,0.4822,0.4835,0.4842,0.4835,0.4872,0.4865,0.4851,0.4829,0.4868,0.4884,0.489,0.4807,0.4806,0.4806,0.4805,0,0,0.4791,0.4795,0.4802,0.4806,0.4811,0.4822,0.4842,0.4854,0.4863,0.4871,0.4887,0.4908,0.4896,0.4903,0.4896,0.4913,0.4951,0.4897,0.4897,0.4907,0.4993,0.5002,0.501,0.4944,0.4945,0.4946,0.4992,0,0.4833,0.4866,0.4858,0.4891,0.4905,0.489,0.4908,0.4913,0.4913,0.4926,0.4926,0.494,0.4923,0.4927,0.4943,0.4943,0.4968,0.494,0.496,0.4961,0.4958,0.5017,0.5027,0.5071,0.4998,0.4999,0.5,0,0.4885,0.4895,0.4929,0.4933,0.4938,0.4954,0.4965,0.4978,0.4985,0.4984,0.4992,0.4983,0.5005,0.4983,0.5013,0.4994,0.5002,0.5004,0.5006,0.5006,0.4982,0.5019,0.5084,0.5091,0.5009,0.5009,0.5008,0,0.4924,0.4946,0.4969,0.4973,0.4978,0.499,0.4993,0.4999,0.5007,0.5018,0.5024,0.5037,0.5044,0.5056,0.5052,0.5036,0.5083,0.5061,0.5083,0.5083,0.5092,0.5091,0.5158,0.5099,0.5098,0.5098,0.5098,0,0.4971,0.4992,0.4986,0.5001,0.5025,0.5018,0.5042,0.5044,0.5049,0.5065,0.5054,0.5068,0.5063,0.5078,0.5075,0.5101,0.5104,0.5104,0.5103,0.5105,0.5105,0.5109,0.5106,0.51,0.51,0.5099,0.5099,0,0.5017,0.5014,0.5039,0.5043,0.5044,0.5062,0.5066,0.508,0.508,0.5099,0.5103,0.5103,0.512,0.5118,0.5137,0.5136,0.5168,0.5163,0.5165,0.5164,0.5186,0.5184,0.5258,0.5267,0.5202,0.5203,0.5203,0,0.5047,0.5063,0.5069,0.5078,0.5082,0.5097,0.5106,0.51,0.511,0.5121,0.5134,0.5151,0.5163,0.5192,0.5194,0.521,0.5205,0.523,0.5207,0.5209,0.5206,0.5204,0.5206,0.5234,0.5235,0.5236,0.5236,0,0.5099,0.5097,0.511,0.5123,0.5133,0.5143,0.5152,0.5161,0.5157,0.5169,0.5186,0.5196,0.5217,0.5234,0.5249,0.5253,0.5245,0.5244,0.525,0.5251,0.5251,0.5251,0.5177,0.5242,0.5241,0.5241,0.524,0.524,0.5137,0.5151,0.5158,0.5173,0.518,0.5189,0.5202,0.5204,0.5219,0.5234,0.5231,0.5251,0.5261,0.528,0.5287,0.5303,0.5294,0.5303,0.5305,0.5307,0.5309,0.5249,0.5306,0.5306,0.5306,0.5306,0.5306,0,0.5188,0.5193,0.5207,0.522,0.5232,0.5223,0.5234,0.5245,0.5262,0.5272,0.5285,0.5306,0.5323,0.5328,0.5345,0.5357,0.5354,0.5362,0.5361,0.5362,0.5316,0.5309,0.5365,0.5365,0.5365,0.5365,0.5365,0.5365,0.5216,0.524,0.5239,0.5267,0.5272,0.5291,0.5297,0.5307,0.5314,0.5338,0.5352,0.5355,0.5363,0.5381,0.5397,0.5398,0.5405,0.5415,0.5414,0.5371,0.5365,0.5359,0.5353,0.5416,0.5416,0.5458,0.5459,0.5459]}]]